Regional Weather Roundup
Issued by NWS Lake Charles, LA

Home | Current Version | Previous Version | Text Only | Print | Product List | Glossary On
Versions: 1 2 3 4 5 6 7 8 9 10 11 12 13 14 15 16 17 18 19 20 21 22 23 24 25 26 27
000
ASUS44 KLCH 201610
RWRLCH
REGIONAL WEATHER ROUNDUP
NATIONAL WEATHER SERVICE LAKE CHARLES LA
1100 AM CDT FRI APR 20 2018

Note: "fair" indicates few or no clouds below 12,000 feet with no
significant weather and/or obstructions to visibility.


ACROSS SOUTHEAST TEXAS

CITY           SKY/WX    TMP DP  RH WIND       PRES   REMARKS
BEAUMONT       FAIR      60  41  49 E12       30.27S
BEAUMONT CITY  FAIR      60  40  47 E7        30.30S
ORANGE         FAIR      61  44  54 E9        30.31R
JASPER         FAIR      59  41  51 NE5       30.32S
$$

ACROSS CENTRAL LOUISIANA

CITY           SKY/WX    TMP DP  RH WIND       PRES   REMARKS
LEESVILLE      FAIR      58  40  50 E5        30.29S
FULLERTON      FAIR      58  40  51 VRB5      30.28S
ALEXANDRIA INT FAIR      57  39  51 E9        30.31S
ESLER FIELD    FAIR      59  38  45 E8        30.32F
DERIDDER       FAIR      59  37  44 E5        30.31S
OAKDALE        FAIR      60  40  47 E7        30.32R
OPELOUSAS      FAIR      60  39  45 NE10G16   30.30S
$$

ACROSS SOUTHWEST AND SOUTH CENTRAL LOUISIANA

CITY           SKY/WX    TMP DP  RH WIND       PRES   REMARKS
SULPHUR        FAIR      62  40  43 E13       30.28F
LAKE CHARLES   FAIR      63  41  44 E16       30.27F
CHENNAULT INT  SUNNY     61  41  48 E15G21    30.28F
CAMERON PHI    SUNNY     63  45  51 E13G18    30.26S
DEQUINCY       FAIR      59  40  49 E5        30.29F
JENNINGS       FAIR      60  41  49 E10G16    30.28F
LAFAYETTE      FAIR      62  43  49 NE8       30.29R
NEW IBERIA     FAIR      63  39  41 E9        30.29S
ABBEVILLE      FAIR      60  41  50 E8        30.29R
PATTERSON      FAIR      62  46  55 E12       30.27S
SALT POINT       N/A    N/A N/A N/A VRB7      30.26R
$$

SELECTED SITES ACROSS THE REGION

CITY           SKY/WX    TMP DP  RH WIND       PRES   REMARKS
HOUSTON BUSH   PTSUNNY   58  42  55 E12       30.29R
HOUSTON HOBBY  CLOUDY    59  43  55 E10       30.28R
GALVESTON      FAIR      63  51  65 NE16      30.27R
COLLEGE STAT   CLOUDY    61  41  47 E10       30.29R
CONROE         CLOUDY    57  41  55 E7        30.29R
HUNTSVILLE     CLOUDY    59  39  47 E7        30.29S
LUFKIN         PTSUNNY   55  40  56 E9        30.32R
SHREVEPORT     PTSUNNY   58  38  47 E10       30.33S
MONROE         FAIR      57  35  43 E12       30.36S
NATCHEZ MS     FAIR      57  38  48 CALM      30.32S
BATON ROUGE    FAIR      61  39  44 NE9       30.28F
N.O. INTL ARPT PTSUNNY   61  43  51 NE13      30.28R
SLIDELL        FAIR      61  38  42 CALM      30.26S
$$

MARINE REPORTS

STATION/POSITION TIME  SKY/WX   TEMP    WIND        PRES    VSBY
                                AIR SEA DIR/SP/G
                 (UTC)          (F)     (DEG/KT/KT) (MB)    (MI)
BUOY 30 S HIGH I 1450            61 70   70/ 17/ 21 1024.2
WVE H/P(F/S)=  4/ 6

SEA RIM ST PARK  1600            60     100/ 12/ 15 1025.8R
PORT ARTHUR      1542            59 67   90/  8/ 14 1025.7R
SABINE PASS N    1542            59 69   80/ 11/ 16 1026.8R
TEXAS POINT      NOT AVBL
CALCASIEU PASS   1548            59 67  100/ 14/ 19 1023.6R
LK CHARLES BEACH 1548            59 67              1024.8F
MARSH ISLAND     NOT AVBL
FRESH WATER LOCK 1548            61 67              1024.6R
AMERADA PASS     1548            60 63   60/  7/ 14 1024.7R
$$




USA.gov is the U.S. government's official web portal to all federal, state and local government web resources and services.